Regional Weather Roundup
Issued by NWS

Home | Current Version | Previous Version | Graphics & Text | Print | Product List | Glossary On
Versions: 1 2 3 4 5 6 7 8 9 10 11 12 13 14 15 16 17 18 19 20 21 22 23 24 25 26 27 28 29 30 31 32 33 34 35 36 37 38 39 40 41 42 43 44 45 46 47 48 49 50
304
ASUS43 KIND 250209
RWRIN

WEATHER ROUNDUP FOR INDIANA
NATIONAL WEATHER SERVICE INDIANAPOLIS IN
900 PM EST FRI FEB 24 2017

NOTE: "FAIR" INDICATES FEW OR NO CLOUDS BELOW 12,000 FEET WITH NO
SIGNIFICANT WEATHER AND/OR OBSTRUCTIONS TO VISIBILITY.

* - STATION DOES NOT REPORT WEATHER SUCH AS PRECIPITATION OR FOG.

+ - STATION NOT QUALITY CONTROLLED BY THE NATIONAL WEATHER SERVICE.
    USE DATA WITH CAUTION...ESPECIALLY DEWPOINT AND RELATIVE
    HUMIDITY OBSERVATIONS.

INZ001>003-010>013-019-020-250300-
NORTHWEST INDIANA

CITY           SKY/WX    TMP DP  RH WIND       PRES   REMARKS
GARY /AIRPORT/ CLOUDY    45  36  70 W22       29.56R
KNOX *+        CLOUDY    43  28  56 W20G25    29.57R
LA PORTE +     CLOUDY    37  37  99 W5        29.56S FOG
MICHIGAN CITY+ CLOUDY    36  36 100 W6        29.58R
MONTICELLO +   CLOUDY    43  37  79 W15G28    29.57F
RENSSELAER +   CLOUDY    43  36  75 W15G24    29.61R
VALPARAISO     CLOUDY    42  40  92 W5        29.57R FOG

$$

LMZ046-743>745-250300-
SOUTHERN LAKE MICHIGAN

STATION/POSITION TIME  TEMP    WIND        PRES    WAVE
                       AIR SEA DIR/SP/G            HT
                 (UTC) (F)     (DEG/KT/KT) (MB)    (FT)
BURNS HARBOR     0130   36      CALM  /  4 1001.7R
MICHIGAN CITY    0140   35     280/  9/ 10   N/A

$$

INZ004-005-014>016-021>024-250300-
NORTH CENTRAL INDIANA

CITY           SKY/WX    TMP DP  RH WIND       PRES   REMARKS
ELKHART        CLOUDY    41  39  93 W13       29.53R FOG
GOSHEN         LGT RAIN  46  41  82 W17       29.50S
LOGANSPORT +   CLOUDY    45  39  81 W15G25    29.60R
PERU/GRISSOM   CLOUDY    46  44  91 W20G30    29.56R
ROCHESTER +    CLOUDY    46  45  93 W17       29.57R
SOUTH BEND     CLOUDY    38  38 100 W13       29.54R
WARSAW +       CLOUDY    46  45  93 W14       29.54R FOG

$$

INZ006>009-017-018-025>027-250300-
NORTHEAST INDIANA

CITY           SKY/WX    TMP DP  RH WIND       PRES   REMARKS
ANGOLA *+      CLOUDY    54  54 100 W13       29.48R
AUBURN +       DRIZZLE   54  50  87 W16G22    29.49R
FORT WAYNE     LGT RAIN  54  50  86 W22       29.51R FOG
HUNTINGTON +   RAIN      50  48  95 W14G23    29.53R
KENDALLVILLE + LGT RAIN  51  49  93 W24G31    29.50R

$$

INZ028-029-035-036-043>045-051>053-250300-
WEST CENTRAL INDIANA

CITY           SKY/WX    TMP DP  RH WIND       PRES   REMARKS
LAFAYETTE      CLOUDY    44  38  79 W21G31    29.61R
TERRE HAUTE    CLOUDY    49  41  74 NW9       29.66R

$$

INZ030>032-037>040-046>048-054>057-064-065-250300-
CENTRAL INDIANA

CITY           SKY/WX    TMP DP  RH WIND       PRES   REMARKS
CP ATTERBURY + RAIN      52  46  82 W12G25    29.62R
COLUMBUS       CLOUDY    59  54  82 W21G29    29.59R
FISHERS *+     CLOUDY    48  46  93 W9        29.60
FRANKFORT +    CLOUDY    49  44  84 W25G32    29.61R
GREENWOOD *+   CLOUDY    52  47  85 NW12G23   29.60R
INDIANAPOLIS   CLOUDY    50  45  83 W17       29.59F
-EAGLE CREEK   CLOUDY    49  43  80 W13       29.59R
KOKOMO +       LGT RAIN  47  44  90 W20       29.56R
MARION +       LGT RAIN  49  47  91 NW20G33   29.56R
MT COMFORT *+  CLOUDY    50  46  87 W18       29.61R
SHELBYVILLE    CLOUDY    55  48  77 W20G30    29.59R
ZIONSVILLE +   CLOUDY    48  45  90 W12       29.59R

$$

INZ033-034-041-042-049-050-058-059-250300-
EAST CENTRAL INDIANA

CITY           SKY/WX    TMP DP  RH WIND       PRES   REMARKS
MUNCIE         LGT RAIN  54  51  90 W15G24    29.56R FOG

$$

INZ060-061-067>069-081>083-085>088-250300-
SOUTHWEST INDIANA

CITY           SKY/WX    TMP DP  RH WIND       PRES   REMARKS
EVANSVILLE     HVY RAIN  53  46  77 W3        29.69R
HUNTINGBURG *+ CLOUDY    54  43  66 W24G30    29.66R
WASHINGTON +   RAIN      51  46  82 W12       29.65R

$$

INZ062-063-066-070>080-084-089>092-250300-
SOUTH CENTRAL AND SOUTHEAST INDIANA

CITY           SKY/WX    TMP DP  RH WIND       PRES   REMARKS
BEDFORD +      LGT RAIN  54  50  87 NW16G24   29.62R
BLOOMINGTON    LGT RAIN  51  45  79 W14       29.63R
MADISON *+     CLOUDY    61  55  82 SW13G18   29.60R
NORTH VERNON + CLOUDY    63  57  82 SW9G17    29.56R
SEYMOUR +      DRIZZLE   63  55  77 W32G40    29.58R

$$





USA.gov is the U.S. government's official web portal to all federal, state and local government web resources and services.